Content
SEND FEEDBACK

Daily
Averages
Monthly
Summary
United States of America

OAK HARBOR, WASHINGTON


Home > North America > United States > Washington
Elevation: 46 feet     Latitude: 48 21N     Longitude: 122 40W

WEATHER
 
SELECT A DAY
Number of Records: 173,244;   Date Range: 7/1/96 - 8/12/14
 
SHARE

PRINT THIS DATA

[ ← Previous Day ]
WEATHER ALMANAC - JANUARY 23, 2013
[ Next Day → ]
[ °C ]   °F
Weather ElementAverageHighLow
Temperature41.9 °F46 °F (10:56 am)37 °F (1:56 am)
Dewpoint36.5 °F41 °F (10:56 am)32 °F (7:05 am)
Humidity81.8 %89 % (1:56 am)61 % (8:39 am)
Barometer29.92 in30.15 in (11:56 pm)29.83 in (12:56 pm)
Wind Speed12.3 mph23 mph (10:56 am)
Wind Gust33.4 mph (10:56 am)
Weather ElementAverage
Visibility8.6 mi
Wind DirectionSE (133 °)

Weather ElementTotal
Precipitation0.19 in
Heating Degree Days23.5 (Base 65)
Averaged from 30 records on January 23, 2013
WEATHER CONDITIONS BREAKOUT
WIND DIRECTION BREAKOUT
WEATHER BY HOUR - JANUARY 23, 2013
[ °C ]   °F
Local TimeTemperatureDewpointHumidityBarometerVisibilityWind DirectionWind SpeedGust SpeedPrecipitationEventsConditions
1:56 AM37.0 °F34.0 °F89 %29.95 in7.0 miESE (120°)10.4 mphOvercast
2:56 AM37.9 °F35.1 °F89 %29.95 in9.0 miEast (100°)5.8 mphOvercast
3:56 AM37.9 °F34.0 °F86 %29.95 in9.0 miEast (100°)3.5 mphOvercast
4:56 AM39.9 °F35.1 °F83 %29.92 in10.0 miEast (80°)10.4 mphOvercast
5:25 AM39.2 °F33.8 °F81 %29.88 in10.0 miEast (90°)17.3 mph0.00 inRainLight Rain
5:56 AM39.9 °F35.1 °F83 %29.88 in10.0 miEast (90°)19.6 mph0.00 inOvercast
6:25 AM42.8 °F33.8 °F70 %29.86 in8.0 miESE (110°)13.8 mph0.00 inRainLight Rain
6:56 AM43.0 °F33.1 °F68 %29.87 in8.0 miSE (130°)13.8 mph0.00 inRainLight Rain
7:05 AM42.8 °F32.0 °F66 %29.85 in8.0 miSE (130°)15.0 mph0.00 inOvercast
7:56 AM44.1 °F32.0 °F63 %29.86 in10.0 miSSE (150°)12.7 mph0.00 inOvercast
8:39 AM44.6 °F32.0 °F61 %29.85 in10.0 miSE (140°)13.8 mph0.00 inRainLight Rain
8:56 AM44.1 °F32.0 °F63 %29.87 in10.0 miSE (130°)13.8 mph0.00 inRainLight Rain
9:56 AM42.1 °F37.9 °F85 %29.87 in6.0 miSSE (160°)6.9 mph0.01 inRainLight Rain
10:56 AM46.0 °F41.0 °F83 %29.84 in8.0 miSE (130°)23.0 mph33.4 mph0.00 inRainLight Rain
11:56 AM46.0 °F39.9 °F79 %29.84 in8.0 miSSE (150°)21.9 mph28.8 mph0.00 inOvercast
12:56 PM45.0 °F39.9 °F82 %29.83 in8.0 miSE (140°)20.7 mph27.6 mphOvercast
1:45 PM44.6 °F39.2 °F81 %29.83 in9.0 miSSE (160°)16.1 mph0.00 inRainLight Rain
1:56 PM44.1 °F39.0 °F82 %29.85 in8.0 miSSE (150°)15.0 mph23.0 mph0.01 inRainLight Rain
2:56 PM43.0 °F39.0 °F86 %29.87 in7.0 miSSE (160°)12.7 mph0.02 inRainLight Rain
3:56 PM42.1 °F39.0 °F89 %29.90 in3.0 miSE (140°)5.8 mph0.08 inRainRain
4:56 PM42.1 °F39.0 °F89 %29.93 in5.0 miSE (140°)6.9 mph0.04 inRainLight Rain
5:56 PM41.0 °F37.9 °F89 %29.94 in10.0 miSE (140°)11.5 mph0.01 inRainLight Rain
6:44 PM41.0 °F37.4 °F87 %29.94 in10.0 miSE (140°)10.4 mph0.01 inRainLight Rain
6:56 PM41.0 °F37.9 °F89 %29.96 in10.0 miSSE (150°)12.7 mph0.01 inRainLight Rain
7:56 PM41.0 °F37.9 °F89 %30.00 in10.0 miSSE (150°)9.2 mph0.00 inRainLight Rain
8:56 PM41.0 °F37.9 °F89 %30.04 in8.0 miSE (140°)12.7 mph0.00 inRainLight Rain
9:17 PM41.0 °F37.4 °F87 %30.04 in10.0 miSSE (160°)11.5 mph0.00 inOvercast
9:56 PM41.0 °F37.9 °F89 %30.07 in10.0 miSSE (160°)10.4 mph0.00 inMostly Cloudy
10:56 PM41.0 °F37.9 °F89 %30.11 in10.0 miEast (100°)5.8 mphMostly Cloudy
11:56 PM39.9 °F37.0 °F89 %30.15 in10.0 miSSE (150°)5.8 mphMostly Cloudy
Hourly data recorded from KNUW, located miles away from Oak Harbor, Washington







STORIES FROM OUR PARTNERS